owner,sensor,date,latitude,longitude,vertical_datum,sea_water_temperature,qcFlag
BP,ioos:station:wmo:42369:1,2023-05-01T00:19:00Z,27.2034,-90.2764,2.0,23.2,11111222
BP,ioos:station:wmo:42369:1,2023-05-01T00:39:00Z,27.2035,-90.2762,2.0,23.2,11111222
BP,ioos:station:wmo:42369:1,2023-05-01T00:59:00Z,27.2039,-90.2759,2.0,23.2,11111222
BP,ioos:station:wmo:42369:1,2023-05-01T01:19:00Z,27.2041,-90.2758,2.0,23.2,11111222
BP,ioos:station:wmo:42369:1,2023-05-01T01:39:00Z,27.2042,-90.2758,2.0,23.2,11111222
BP,ioos:station:wmo:42369:1,2023-05-01T01:59:00Z,27.2045,-90.2754,2.0,23.2,11111222
BP,ioos:station:wmo:42369:1,2023-05-01T02:19:00Z,27.2047,-90.2754,2.0,23.2,11111222
BP,ioos:station:wmo:42369:1,2023-05-01T02:39:00Z,27.2049,-90.2753,2.0,23.2,11111222
BP,ioos:station:wmo:42369:1,2023-05-01T02:59:00Z,27.2050,-90.2753,2.0,23.2,11111222
BP,ioos:station:wmo:42369:1,2023-05-01T03:19:00Z,27.2049,-90.2753,2.0,23.2,11111222
BP,ioos:station:wmo:42369:1,2023-05-01T03:39:00Z,27.2049,-90.2753,2.0,23.2,11111222
BP,ioos:station:wmo:42369:1,2023-05-01T03:59:00Z,27.2048,-90.2753,2.0,23.2,11111222
BP,ioos:station:wmo:42369:1,2023-05-01T04:19:00Z,27.2048,-90.2753,2.0,23.2,11111222
BP,ioos:station:wmo:42369:1,2023-05-01T04:39:00Z,27.2047,-90.2753,2.0,23.2,11111222
BP,ioos:station:wmo:42369:1,2023-05-01T04:59:00Z,27.2046,-90.2753,2.0,23.2,11111222
BP,ioos:station:wmo:42369:1,2023-05-01T05:19:00Z,27.2044,-90.2755,2.0,23.2,11111222
BP,ioos:station:wmo:42369:1,2023-05-01T05:39:00Z,27.2042,-90.2755,2.0,23.3,11111222
BP,ioos:station:wmo:42369:1,2023-05-01T05:59:00Z,27.2041,-90.2756,2.0,23.3,11111222
BP,ioos:station:wmo:42369:1,2023-05-01T06:19:00Z,27.2039,-90.2757,2.0,23.3,11111222
BP,ioos:station:wmo:42369:1,2023-05-01T06:39:00Z,27.2037,-90.2758,2.0,23.3,11111222
BP,ioos:station:wmo:42369:1,2023-05-01T06:59:00Z,27.2036,-90.2759,2.0,23.3,11111222
BP,ioos:station:wmo:42369:1,2023-05-01T07:19:00Z,27.2034,-90.2760,2.0,23.2,11111222
BP,ioos:station:wmo:42369:1,2023-05-01T07:39:00Z,27.2033,-90.2760,2.0,23.2,11111222
BP,ioos:station:wmo:42369:1,2023-05-01T07:59:00Z,27.2031,-90.2762,2.0,23.2,11111222
BP,ioos:station:wmo:42369:1,2023-05-01T08:19:00Z,27.2031,-90.2762,2.0,23.2,11111222
BP,ioos:station:wmo:42369:1,2023-05-01T08:39:00Z,27.2029,-90.2763,2.0,23.2,11111222
BP,ioos:station:wmo:42369:1,2023-05-01T08:59:00Z,27.2027,-90.2765,2.0,23.3,11111222
BP,ioos:station:wmo:42369:1,2023-05-01T09:19:00Z,27.2025,-90.2768,2.0,23.3,11111222
BP,ioos:station:wmo:42369:1,2023-05-01T09:39:00Z,27.2024,-90.2770,2.0,23.4,11111222
BP,ioos:station:wmo:42369:1,2023-05-01T09:59:00Z,27.2023,-90.2772,2.0,23.4,11111222
BP,ioos:station:wmo:42369:1,2023-05-01T10:19:00Z,27.2023,-90.2773,2.0,23.6,11111222
BP,ioos:station:wmo:42369:1,2023-05-01T10:39:00Z,27.2022,-90.2774,2.0,23.6,11111222
BP,ioos:station:wmo:42369:1,2023-05-01T10:59:00Z,27.2020,-90.2776,2.0,23.6,11111222
BP,ioos:station:wmo:42369:1,2023-05-01T11:19:00Z,27.2017,-90.2781,2.0,23.7,11111222
BP,ioos:station:wmo:42369:1,2023-05-01T11:39:00Z,27.2014,-90.2785,2.0,23.7,11111222
BP,ioos:station:wmo:42369:1,2023-05-01T11:59:00Z,27.2012,-90.2789,2.0,23.7,11111222
BP,ioos:station:wmo:42369:1,2023-05-01T12:19:00Z,27.2011,-90.2792,2.0,23.8,11111222
BP,ioos:station:wmo:42369:1,2023-05-01T12:39:00Z,27.2009,-90.2796,2.0,23.8,11111222
BP,ioos:station:wmo:42369:1,2023-05-01T12:59:00Z,27.2008,-90.2801,2.0,23.8,11111222
BP,ioos:station:wmo:42369:1,2023-05-01T13:19:00Z,27.2007,-90.2805,2.0,23.8,11111222
BP,ioos:station:wmo:42369:1,2023-05-01T13:39:00Z,27.2007,-90.2808,2.0,23.8,11111222
BP,ioos:station:wmo:42369:1,2023-05-01T13:59:00Z,27.2007,-90.2809,2.0,23.8,11111222
BP,ioos:station:wmo:42369:1,2023-05-01T14:19:00Z,27.2007,-90.2811,2.0,23.8,11111222
BP,ioos:station:wmo:42369:1,2023-05-01T14:39:00Z,27.2007,-90.2811,2.0,23.8,11111222
BP,ioos:station:wmo:42369:1,2023-05-01T14:59:00Z,27.2007,-90.2814,2.0,23.8,11111222
BP,ioos:station:wmo:42369:1,2023-05-01T15:19:00Z,27.2007,-90.2816,2.0,23.7,11111222
BP,ioos:station:wmo:42369:1,2023-05-01T15:39:00Z,27.2008,-90.2817,2.0,23.7,11111222
BP,ioos:station:wmo:42369:1,2023-05-01T15:59:00Z,27.2010,-90.2820,2.0,23.7,11111222
BP,ioos:station:wmo:42369:1,2023-05-01T16:19:00Z,27.2012,-90.2822,2.0,23.6,11111222
BP,ioos:station:wmo:42369:1,2023-05-01T16:39:00Z,27.2012,-90.2822,2.0,23.6,11111222
BP,ioos:station:wmo:42369:1,2023-05-01T16:59:00Z,27.2014,-90.2821,2.0,23.6,11111222
BP,ioos:station:wmo:42369:1,2023-05-01T17:19:00Z,27.2016,-90.2821,2.0,23.6,11111222
BP,ioos:station:wmo:42369:1,2023-05-01T17:39:00Z,27.2017,-90.2820,2.0,23.5,11111222
BP,ioos:station:wmo:42369:1,2023-05-01T17:59:00Z,27.2019,-90.2815,2.0,23.5,11111222
BP,ioos:station:wmo:42369:1,2023-05-01T18:19:00Z,27.2021,-90.2814,2.0,23.5,11111222
BP,ioos:station:wmo:42369:1,2023-05-01T18:39:00Z,27.2021,-90.2812,2.0,23.6,11111222
BP,ioos:station:wmo:42369:1,2023-05-01T18:59:00Z,27.2022,-90.2811,2.0,23.6,11111222
BP,ioos:station:wmo:42369:1,2023-05-01T19:19:00Z,27.2023,-90.2810,2.0,23.7,11111222
BP,ioos:station:wmo:42369:1,2023-05-01T19:39:00Z,27.2023,-90.2807,2.0,23.7,11111222
BP,ioos:station:wmo:42369:1,2023-05-01T19:59:00Z,27.2023,-90.2802,2.0,23.7,11111222
BP,ioos:station:wmo:42369:1,2023-05-01T20:19:00Z,27.2024,-90.2799,2.0,23.7,11111222
BP,ioos:station:wmo:42369:1,2023-05-01T20:39:00Z,27.2024,-90.2798,2.0,23.8,11111222
BP,ioos:station:wmo:42369:1,2023-05-01T20:59:00Z,27.2026,-90.2795,2.0,23.7,11111222
BP,ioos:station:wmo:42369:1,2023-05-01T21:19:00Z,27.2026,-90.2792,2.0,23.7,11111222
BP,ioos:station:wmo:42369:1,2023-05-01T21:39:00Z,27.2027,-90.2788,2.0,23.7,11111222
BP,ioos:station:wmo:42369:1,2023-05-01T21:59:00Z,27.2028,-90.2785,2.0,23.7,11111222
BP,ioos:station:wmo:42369:1,2023-05-01T22:19:00Z,27.2029,-90.2782,2.0,23.7,11111222
BP,ioos:station:wmo:42369:1,2023-05-01T22:39:00Z,27.2029,-90.2778,2.0,23.7,11111222
BP,ioos:station:wmo:42369:1,2023-05-01T22:59:00Z,27.2030,-90.2776,2.0,23.6,11111222
BP,ioos:station:wmo:42369:1,2023-05-01T23:19:00Z,27.2031,-90.2775,2.0,23.6,11111222
BP,ioos:station:wmo:42369:1,2023-05-01T23:39:00Z,27.2033,-90.2774,2.0,23.6,11111222
BP,ioos:station:wmo:42369:1,2023-05-01T23:59:00Z,27.2035,-90.2771,2.0,23.6,11111222
BP,ioos:station:wmo:42369:1,2023-05-02T00:19:00Z,27.2036,-90.2770,2.0,23.6,11111222
BP,ioos:station:wmo:42369:1,2023-05-02T00:39:00Z,27.2036,-90.2768,2.0,23.6,11111222
BP,ioos:station:wmo:42369:1,2023-05-02T00:59:00Z,27.2037,-90.2769,2.0,23.6,11111222
BP,ioos:station:wmo:42369:1,2023-05-02T01:19:00Z,27.2035,-90.2769,2.0,23.7,11111222
BP,ioos:station:wmo:42369:1,2023-05-02T01:39:00Z,27.2034,-90.2770,2.0,23.8,11111222
BP,ioos:station:wmo:42369:1,2023-05-02T01:59:00Z,27.2034,-90.2770,2.0,23.7,11111222
BP,ioos:station:wmo:42369:1,2023-05-02T02:19:00Z,27.2034,-90.2770,2.0,23.7,11111222
BP,ioos:station:wmo:42369:1,2023-05-02T02:39:00Z,27.2032,-90.2770,2.0,23.7,11111222
BP,ioos:station:wmo:42369:1,2023-05-02T02:59:00Z,27.2031,-90.2771,2.0,23.8,11111222
BP,ioos:station:wmo:42369:1,2023-05-02T03:19:00Z,27.2030,-90.2771,2.0,23.8,11111222
BP,ioos:station:wmo:42369:1,2023-05-02T03:39:00Z,27.2026,-90.2774,2.0,23.8,11111222
BP,ioos:station:wmo:42369:1,2023-05-02T03:59:00Z,27.2024,-90.2777,2.0,23.8,11111222
BP,ioos:station:wmo:42369:1,2023-05-02T04:19:00Z,27.2024,-90.2777,2.0,23.9,11111222
BP,ioos:station:wmo:42369:1,2023-05-02T04:39:00Z,27.2020,-90.2783,2.0,24.0,11111222
BP,ioos:station:wmo:42369:1,2023-05-02T04:59:00Z,27.2016,-90.2789,2.0,24.1,11111222
BP,ioos:station:wmo:42369:1,2023-05-02T05:19:00Z,27.2014,-90.2792,2.0,24.1,11111222
BP,ioos:station:wmo:42369:1,2023-05-02T05:39:00Z,27.2013,-90.2794,2.0,24.1,11111222
BP,ioos:station:wmo:42369:1,2023-05-02T05:59:00Z,27.2012,-90.2797,2.0,24.1,11111222
BP,ioos:station:wmo:42369:1,2023-05-02T06:19:00Z,27.2012,-90.2799,2.0,24.0,11111222
BP,ioos:station:wmo:42369:1,2023-05-02T06:39:00Z,27.2012,-90.2800,2.0,24.0,11111222
BP,ioos:station:wmo:42369:1,2023-05-02T06:59:00Z,27.2012,-90.2803,2.0,24.0,11111222
BP,ioos:station:wmo:42369:1,2023-05-02T07:19:00Z,27.2012,-90.2806,2.0,23.9,11111222
BP,ioos:station:wmo:42369:1,2023-05-02T07:39:00Z,27.2013,-90.2808,2.0,23.9,11111222
BP,ioos:station:wmo:42369:1,2023-05-02T07:59:00Z,27.2012,-90.2808,2.0,23.9,11111222
BP,ioos:station:wmo:42369:1,2023-05-02T08:19:00Z,27.2012,-90.2808,2.0,23.9,11111222
BP,ioos:station:wmo:42369:1,2023-05-02T08:39:00Z,27.2012,-90.2809,2.0,23.9,11111222
BP,ioos:station:wmo:42369:1,2023-05-02T08:59:00Z,27.2010,-90.2811,2.0,23.9,11111222
BP,ioos:station:wmo:42369:1,2023-05-02T09:19:00Z,27.2009,-90.2813,2.0,24.0,11111222
BP,ioos:station:wmo:42369:1,2023-05-02T09:39:00Z,27.2008,-90.2817,2.0,24.0,11111222
BP,ioos:station:wmo:42369:1,2023-05-02T09:59:00Z,27.2008,-90.2822,2.0,24.1,11111222
BP,ioos:station:wmo:42369:1,2023-05-02T10:19:00Z,27.2008,-90.2826,2.0,24.1,11111222
BP,ioos:station:wmo:42369:1,2023-05-02T10:39:00Z,27.2008,-90.2830,2.0,24.1,11111222
BP,ioos:station:wmo:42369:1,2023-05-02T10:59:00Z,27.2008,-90.2833,2.0,24.1,11111222
BP,ioos:station:wmo:42369:1,2023-05-02T11:19:00Z,27.2008,-90.2836,2.0,24.1,11111222
BP,ioos:station:wmo:42369:1,2023-05-02T11:39:00Z,27.2008,-90.2838,2.0,24.1,11111222
BP,ioos:station:wmo:42369:1,2023-05-02T11:59:00Z,27.2008,-90.2841,2.0,24.1,11111222
BP,ioos:station:wmo:42369:1,2023-05-02T12:19:00Z,27.2008,-90.2842,2.0,24.1,11111222
BP,ioos:station:wmo:42369:1,2023-05-02T12:39:00Z,27.2009,-90.2843,2.0,24.1,11111222
BP,ioos:station:wmo:42369:1,2023-05-02T12:59:00Z,27.2010,-90.2846,2.0,24.1,11111222
BP,ioos:station:wmo:42369:1,2023-05-02T13:19:00Z,27.2011,-90.2846,2.0,24.1,11111222
BP,ioos:station:wmo:42369:1,2023-05-02T13:39:00Z,27.2011,-90.2846,2.0,24.1,11111222
BP,ioos:station:wmo:42369:1,2023-05-02T13:59:00Z,27.2011,-90.2846,2.0,24.1,11111222
BP,ioos:station:wmo:42369:1,2023-05-02T14:19:00Z,27.2011,-90.2845,2.0,24.1,11111222
BP,ioos:station:wmo:42369:1,2023-05-02T14:39:00Z,27.2011,-90.2844,2.0,24.2,11111222
BP,ioos:station:wmo:42369:1,2023-05-02T14:59:00Z,27.2010,-90.2843,2.0,24.2,11111222
BP,ioos:station:wmo:42369:1,2023-05-02T15:19:00Z,27.2010,-90.2843,2.0,24.2,11111222
BP,ioos:station:wmo:42369:1,2023-05-02T15:39:00Z,27.2011,-90.2842,2.0,24.2,11111222
BP,ioos:station:wmo:42369:1,2023-05-02T15:59:00Z,27.2011,-90.2841,2.0,24.2,11111222
BP,ioos:station:wmo:42369:1,2023-05-02T16:19:00Z,27.2011,-90.2840,2.0,24.2,11111222
BP,ioos:station:wmo:42369:1,2023-05-02T16:39:00Z,27.2011,-90.2839,2.0,24.2,11111222
BP,ioos:station:wmo:42369:1,2023-05-02T16:59:00Z,27.2011,-90.2837,2.0,24.3,11111222
BP,ioos:station:wmo:42369:1,2023-05-02T17:19:00Z,27.2012,-90.2835,2.0,24.3,11111222
BP,ioos:station:wmo:42369:1,2023-05-02T17:39:00Z,27.2012,-90.2831,2.0,24.4,11111222
BP,ioos:station:wmo:42369:1,2023-05-02T17:59:00Z,27.2012,-90.2829,2.0,24.6,11111222
BP,ioos:station:wmo:42369:1,2023-05-02T18:19:00Z,27.2012,-90.2828,2.0,24.8,11111222
BP,ioos:station:wmo:42369:1,2023-05-02T18:39:00Z,27.2012,-90.2827,2.0,24.9,11111222
BP,ioos:station:wmo:42369:1,2023-05-02T18:59:00Z,27.2012,-90.2825,2.0,25.0,11111222
BP,ioos:station:wmo:42369:1,2023-05-02T19:19:00Z,27.2012,-90.2825,2.0,25.1,11111222
BP,ioos:station:wmo:42369:1,2023-05-02T19:39:00Z,27.2011,-90.2824,2.0,25.0,11111222
BP,ioos:station:wmo:42369:1,2023-05-02T19:59:00Z,27.2010,-90.2824,2.0,25.1,11111222
BP,ioos:station:wmo:42369:1,2023-05-02T20:19:00Z,27.2010,-90.2825,2.0,25.1,11111222
BP,ioos:station:wmo:42369:1,2023-05-02T20:39:00Z,27.2010,-90.2825,2.0,25.1,11111222
BP,ioos:station:wmo:42369:1,2023-05-02T20:59:00Z,27.2009,-90.2828,2.0,25.1,11111222
BP,ioos:station:wmo:42369:1,2023-05-02T21:19:00Z,27.2007,-90.2831,2.0,25.0,11111222
BP,ioos:station:wmo:42369:1,2023-05-02T21:39:00Z,27.2006,-90.2834,2.0,25.0,11111222
BP,ioos:station:wmo:42369:1,2023-05-02T21:59:00Z,27.2007,-90.2838,2.0,24.9,11111222
BP,ioos:station:wmo:42369:1,2023-05-02T22:19:00Z,27.2007,-90.2839,2.0,24.9,11111222
BP,ioos:station:wmo:42369:1,2023-05-02T22:39:00Z,27.2007,-90.2841,2.0,24.9,11111222
BP,ioos:station:wmo:42369:1,2023-05-02T22:59:00Z,27.2009,-90.2848,2.0,24.9,11111222
BP,ioos:station:wmo:42369:1,2023-05-02T23:19:00Z,27.2010,-90.2851,2.0,24.9,11111222
BP,ioos:station:wmo:42369:1,2023-05-02T23:39:00Z,27.2011,-90.2852,2.0,24.8,11111222
BP,ioos:station:wmo:42369:1,2023-05-02T23:59:00Z,27.2012,-90.2856,2.0,24.8,11111222
BP,ioos:station:wmo:42369:1,2023-05-03T00:19:00Z,27.2014,-90.2861,2.0,24.8,11111222
BP,ioos:station:wmo:42369:1,2023-05-03T00:39:00Z,27.2015,-90.2866,2.0,24.7,11111222
BP,ioos:station:wmo:42369:1,2023-05-03T00:59:00Z,27.2017,-90.2869,2.0,24.7,11111222
BP,ioos:station:wmo:42369:1,2023-05-03T01:19:00Z,27.2017,-90.2870,2.0,24.6,11111222
BP,ioos:station:wmo:42369:1,2023-05-03T01:39:00Z,27.2019,-90.2874,2.0,24.6,11111222
BP,ioos:station:wmo:42369:1,2023-05-03T01:59:00Z,27.2022,-90.2878,2.0,24.6,11111222
BP,ioos:station:wmo:42369:1,2023-05-03T02:19:00Z,27.2024,-90.2879,2.0,24.5,11111222
BP,ioos:station:wmo:42369:1,2023-05-03T02:39:00Z,27.2026,-90.2881,2.0,24.5,11111222
BP,ioos:station:wmo:42369:1,2023-05-03T02:59:00Z,27.2027,-90.2882,2.0,24.5,11111222
BP,ioos:station:wmo:42369:1,2023-05-03T03:19:00Z,27.2028,-90.2882,2.0,24.4,11111222
BP,ioos:station:wmo:42369:1,2023-05-03T03:39:00Z,27.2028,-90.2883,2.0,24.4,11111222
BP,ioos:station:wmo:42369:1,2023-05-03T03:59:00Z,27.2028,-90.2882,2.0,24.4,11111222
BP,ioos:station:wmo:42369:1,2023-05-03T04:19:00Z,27.2029,-90.2882,2.0,24.3,11111222
BP,ioos:station:wmo:42369:1,2023-05-03T04:39:00Z,27.2030,-90.2882,2.0,24.3,11111222
BP,ioos:station:wmo:42369:1,2023-05-03T04:59:00Z,27.2031,-90.2881,2.0,24.2,11111222
BP,ioos:station:wmo:42369:1,2023-05-03T05:19:00Z,27.2031,-90.2879,2.0,24.2,11111222
BP,ioos:station:wmo:42369:1,2023-05-03T05:39:00Z,27.2031,-90.2878,2.0,24.2,11111222
BP,ioos:station:wmo:42369:1,2023-05-03T05:59:00Z,27.2032,-90.2877,2.0,24.2,11111222
BP,ioos:station:wmo:42369:1,2023-05-03T06:19:00Z,27.2031,-90.2877,2.0,24.1,11111222
BP,ioos:station:wmo:42369:1,2023-05-03T06:39:00Z,27.2031,-90.2877,2.0,24.1,11111222
BP,ioos:station:wmo:42369:1,2023-05-03T06:59:00Z,27.2029,-90.2875,2.0,24.1,11111222
BP,ioos:station:wmo:42369:1,2023-05-03T07:19:00Z,27.2029,-90.2873,2.0,24.1,11111222
BP,ioos:station:wmo:42369:1,2023-05-03T07:39:00Z,27.2028,-90.2870,2.0,24.0,11111222
BP,ioos:station:wmo:42369:1,2023-05-03T07:59:00Z,27.2027,-90.2866,2.0,24.0,11111222
BP,ioos:station:wmo:42369:1,2023-05-03T08:19:00Z,27.2025,-90.2863,2.0,24.0,11111222
BP,ioos:station:wmo:42369:1,2023-05-03T08:39:00Z,27.2023,-90.2860,2.0,24.0,11111222
BP,ioos:station:wmo:42369:1,2023-05-03T08:59:00Z,27.2022,-90.2859,2.0,24.0,11111222
BP,ioos:station:wmo:42369:1,2023-05-03T09:19:00Z,27.2021,-90.2858,2.0,24.0,11111222
BP,ioos:station:wmo:42369:1,2023-05-03T09:39:00Z,27.2020,-90.2856,2.0,24.0,11111222
BP,ioos:station:wmo:42369:1,2023-05-03T09:59:00Z,27.2018,-90.2854,2.0,24.0,11111222
BP,ioos:station:wmo:42369:1,2023-05-03T10:19:00Z,27.2018,-90.2851,2.0,24.0,11111222
BP,ioos:station:wmo:42369:1,2023-05-03T10:39:00Z,27.2017,-90.2849,2.0,24.0,11111222
BP,ioos:station:wmo:42369:1,2023-05-03T10:59:00Z,27.2015,-90.2847,2.0,24.0,11111222
BP,ioos:station:wmo:42369:1,2023-05-03T11:19:00Z,27.2013,-90.2846,2.0,24.1,11111222
BP,ioos:station:wmo:42369:1,2023-05-03T11:39:00Z,27.2010,-90.2845,2.0,24.1,11111222
BP,ioos:station:wmo:42369:1,2023-05-03T11:59:00Z,27.2009,-90.2844,2.0,24.1,11111222
BP,ioos:station:wmo:42369:1,2023-05-03T12:19:00Z,27.2009,-90.2844,2.0,24.1,11111222
BP,ioos:station:wmo:42369:1,2023-05-03T12:39:00Z,27.2008,-90.2842,2.0,24.1,11111222
BP,ioos:station:wmo:42369:1,2023-05-03T12:59:00Z,27.2007,-90.2843,2.0,24.1,11111222
BP,ioos:station:wmo:42369:1,2023-05-03T13:19:00Z,27.2007,-90.2843,2.0,24.1,11111222
BP,ioos:station:wmo:42369:1,2023-05-03T13:39:00Z,27.2007,-90.2843,2.0,24.2,11111222
BP,ioos:station:wmo:42369:1,2023-05-03T13:59:00Z,27.2006,-90.2843,2.0,24.2,11111222
BP,ioos:station:wmo:42369:1,2023-05-03T14:19:00Z,27.2006,-90.2843,2.0,24.2,11111222
BP,ioos:station:wmo:42369:1,2023-05-03T14:39:00Z,27.2006,-90.2844,2.0,24.2,11111222
BP,ioos:station:wmo:42369:1,2023-05-03T14:59:00Z,27.2005,-90.2844,2.0,24.2,11111222
BP,ioos:station:wmo:42369:1,2023-05-03T15:19:00Z,27.2005,-90.2844,2.0,24.3,11111222
BP,ioos:station:wmo:42369:1,2023-05-03T15:39:00Z,27.2005,-90.2845,2.0,24.3,11111222
BP,ioos:station:wmo:42369:1,2023-05-03T15:59:00Z,27.2004,-90.2847,2.0,24.3,11111222
BP,ioos:station:wmo:42369:1,2023-05-03T16:19:00Z,27.2005,-90.2848,2.0,24.3,11111222
BP,ioos:station:wmo:42369:1,2023-05-03T16:39:00Z,27.2005,-90.2849,2.0,24.4,11111222
BP,ioos:station:wmo:42369:1,2023-05-03T16:59:00Z,27.2006,-90.2853,2.0,24.4,11111222
BP,ioos:station:wmo:42369:1,2023-05-03T17:19:00Z,27.2006,-90.2854,2.0,24.4,11111222
BP,ioos:station:wmo:42369:1,2023-05-03T17:39:00Z,27.2008,-90.2858,2.0,24.4,11111222
BP,ioos:station:wmo:42369:1,2023-05-03T17:59:00Z,27.2010,-90.2861,2.0,24.4,11111222
BP,ioos:station:wmo:42369:1,2023-05-03T18:19:00Z,27.2011,-90.2864,2.0,24.5,11111222
BP,ioos:station:wmo:42369:1,2023-05-03T18:39:00Z,27.2013,-90.2866,2.0,24.5,11111222
BP,ioos:station:wmo:42369:1,2023-05-03T18:59:00Z,27.2013,-90.2868,2.0,24.6,11111222
BP,ioos:station:wmo:42369:1,2023-05-03T19:19:00Z,27.2015,-90.2870,2.0,24.6,11111222
BP,ioos:station:wmo:42369:1,2023-05-03T19:39:00Z,27.2017,-90.2873,2.0,24.7,11111222
BP,ioos:station:wmo:42369:1,2023-05-03T19:59:00Z,27.2018,-90.2874,2.0,24.6,11111222
BP,ioos:station:wmo:42369:1,2023-05-03T20:19:00Z,27.2019,-90.2874,2.0,24.6,11111222
BP,ioos:station:wmo:42369:1,2023-05-03T20:39:00Z,27.2021,-90.2876,2.0,24.6,11111222
BP,ioos:station:wmo:42369:1,2023-05-03T20:59:00Z,27.2022,-90.2876,2.0,24.6,11111222
BP,ioos:station:wmo:42369:1,2023-05-03T21:19:00Z,27.2022,-90.2877,2.0,24.6,11111222
BP,ioos:station:wmo:42369:1,2023-05-03T21:39:00Z,27.2022,-90.2877,2.0,24.6,11111222
BP,ioos:station:wmo:42369:1,2023-05-03T21:59:00Z,27.2023,-90.2878,2.0,24.5,11111222
BP,ioos:station:wmo:42369:1,2023-05-03T22:19:00Z,27.2024,-90.2880,2.0,24.5,11111222
BP,ioos:station:wmo:42369:1,2023-05-03T22:39:00Z,27.2024,-90.2880,2.0,24.5,11111222
BP,ioos:station:wmo:42369:1,2023-05-03T22:59:00Z,27.2026,-90.2881,2.0,24.5,11111222
BP,ioos:station:wmo:42369:1,2023-05-03T23:19:00Z,27.2026,-90.2882,2.0,24.5,11111222
BP,ioos:station:wmo:42369:1,2023-05-03T23:39:00Z,27.2026,-90.2882,2.0,24.4,11111222
BP,ioos:station:wmo:42369:1,2023-05-03T23:59:00Z,27.2027,-90.2883,2.0,24.4,11111222
BP,ioos:station:wmo:42369:1,2023-05-04T00:19:00Z,27.2029,-90.2885,2.0,24.4,11111222
BP,ioos:station:wmo:42369:1,2023-05-04T00:39:00Z,27.2031,-90.2886,2.0,24.4,11111222
BP,ioos:station:wmo:42369:1,2023-05-04T00:59:00Z,27.2032,-90.2887,2.0,24.4,11111222
BP,ioos:station:wmo:42369:1,2023-05-04T01:19:00Z,27.2034,-90.2888,2.0,24.4,11111222
BP,ioos:station:wmo:42369:1,2023-05-04T01:39:00Z,27.2036,-90.2890,2.0,24.3,11111222
BP,ioos:station:wmo:42369:1,2023-05-04T01:59:00Z,27.2038,-90.2891,2.0,24.3,11111222
BP,ioos:station:wmo:42369:1,2023-05-04T02:19:00Z,27.2040,-90.2892,2.0,24.3,11111222
BP,ioos:station:wmo:42369:1,2023-05-04T02:39:00Z,27.2041,-90.2893,2.0,24.2,11111222
BP,ioos:station:wmo:42369:1,2023-05-04T02:59:00Z,27.2041,-90.2893,2.0,24.2,11111222
BP,ioos:station:wmo:42369:1,2023-05-04T03:19:00Z,27.2043,-90.2894,2.0,24.2,11111222
BP,ioos:station:wmo:42369:1,2023-05-04T03:39:00Z,27.2043,-90.2894,2.0,24.2,11111222
BP,ioos:station:wmo:42369:1,2023-05-04T03:59:00Z,27.2045,-90.2896,2.0,24.1,11111222
BP,ioos:station:wmo:42369:1,2023-05-04T04:19:00Z,27.2047,-90.2896,2.0,24.1,11111222
BP,ioos:station:wmo:42369:1,2023-05-04T04:39:00Z,27.2049,-90.2897,2.0,24.1,11111222
BP,ioos:station:wmo:42369:1,2023-05-04T04:59:00Z,27.2053,-90.2899,2.0,24.1,11111222
BP,ioos:station:wmo:42369:1,2023-05-04T05:19:00Z,27.2058,-90.2900,2.0,24.1,11111222
BP,ioos:station:wmo:42369:1,2023-05-04T05:39:00Z,27.2061,-90.2900,2.0,24.1,11111222
BP,ioos:station:wmo:42369:1,2023-05-04T05:59:00Z,27.2064,-90.2900,2.0,24.1,11111222
BP,ioos:station:wmo:42369:1,2023-05-04T06:19:00Z,27.2067,-90.2900,2.0,24.1,11111222
BP,ioos:station:wmo:42369:1,2023-05-04T06:39:00Z,27.2072,-90.2899,2.0,24.0,11111222
BP,ioos:station:wmo:42369:1,2023-05-04T06:59:00Z,27.2076,-90.2898,2.0,24.0,11111222
BP,ioos:station:wmo:42369:1,2023-05-04T07:19:00Z,27.2080,-90.2897,2.0,24.0,11111222
BP,ioos:station:wmo:42369:1,2023-05-04T07:39:00Z,27.2082,-90.2895,2.0,24.0,11111222
BP,ioos:station:wmo:42369:1,2023-05-04T07:59:00Z,27.2084,-90.2893,2.0,24.0,11111222
BP,ioos:station:wmo:42369:1,2023-05-04T08:19:00Z,27.2086,-90.2889,2.0,24.0,11111222
BP,ioos:station:wmo:42369:1,2023-05-04T08:39:00Z,27.2088,-90.2886,2.0,24.0,11111222
BP,ioos:station:wmo:42369:1,2023-05-04T08:59:00Z,27.2090,-90.2883,2.0,23.9,11111222
BP,ioos:station:wmo:42369:1,2023-05-04T09:19:00Z,27.2091,-90.2881,2.0,23.9,11111222
BP,ioos:station:wmo:42369:1,2023-05-04T09:39:00Z,27.2092,-90.2878,2.0,23.9,11111222
BP,ioos:station:wmo:42369:1,2023-05-04T09:59:00Z,27.2092,-90.2873,2.0,23.9,11111222
BP,ioos:station:wmo:42369:1,2023-05-04T10:19:00Z,27.2092,-90.2869,2.0,23.9,11111222
BP,ioos:station:wmo:42369:1,2023-05-04T10:39:00Z,27.2092,-90.2864,2.0,23.9,11111222
BP,ioos:station:wmo:42369:1,2023-05-04T10:59:00Z,27.2091,-90.2857,2.0,24.0,11111222
BP,ioos:station:wmo:42369:1,2023-05-04T11:19:00Z,27.2089,-90.2853,2.0,24.0,11111222
BP,ioos:station:wmo:42369:1,2023-05-04T11:39:00Z,27.2088,-90.2851,2.0,24.0,11111222
BP,ioos:station:wmo:42369:1,2023-05-04T11:59:00Z,27.2085,-90.2844,2.0,24.0,11111222
BP,ioos:station:wmo:42369:1,2023-05-04T12:19:00Z,27.2082,-90.2836,2.0,24.0,11111222
BP,ioos:station:wmo:42369:1,2023-05-04T12:39:00Z,27.2079,-90.2831,2.0,24.1,11111222
BP,ioos:station:wmo:42369:1,2023-05-04T12:59:00Z,27.2074,-90.2824,2.0,24.1,11111222
BP,ioos:station:wmo:42369:1,2023-05-04T13:19:00Z,27.2069,-90.2816,2.0,24.1,11111222
BP,ioos:station:wmo:42369:1,2023-05-04T13:39:00Z,27.2063,-90.2810,2.0,24.1,11111222
BP,ioos:station:wmo:42369:1,2023-05-04T13:59:00Z,27.2057,-90.2803,2.0,24.2,11111222
BP,ioos:station:wmo:42369:1,2023-05-04T14:19:00Z,27.2049,-90.2797,2.0,24.2,11111222
BP,ioos:station:wmo:42369:1,2023-05-04T14:39:00Z,27.2041,-90.2792,2.0,24.2,11111222
BP,ioos:station:wmo:42369:1,2023-05-04T14:59:00Z,27.2034,-90.2789,2.0,24.3,11111222
BP,ioos:station:wmo:42369:1,2023-05-04T15:19:00Z,27.2028,-90.2789,2.0,24.4,11111222
BP,ioos:station:wmo:42369:1,2023-05-04T15:39:00Z,27.2023,-90.2790,2.0,24.5,11111222
BP,ioos:station:wmo:42369:1,2023-05-04T15:59:00Z,27.2019,-90.2793,2.0,24.5,11111222
BP,ioos:station:wmo:42369:1,2023-05-04T16:19:00Z,27.2016,-90.2797,2.0,24.6,11111222
BP,ioos:station:wmo:42369:1,2023-05-04T16:39:00Z,27.2013,-90.2802,2.0,24.7,11111222
BP,ioos:station:wmo:42369:1,2023-05-04T16:59:00Z,27.2012,-90.2806,2.0,24.8,11111222
BP,ioos:station:wmo:42369:1,2023-05-04T17:19:00Z,27.2009,-90.2810,2.0,24.8,11111222
BP,ioos:station:wmo:42369:1,2023-05-04T17:39:00Z,27.2008,-90.2816,2.0,24.9,11111222
BP,ioos:station:wmo:42369:1,2023-05-04T17:59:00Z,27.2007,-90.2822,2.0,25.0,11111222
BP,ioos:station:wmo:42369:1,2023-05-04T18:19:00Z,27.2007,-90.2828,2.0,25.0,11111222
BP,ioos:station:wmo:42369:1,2023-05-04T18:39:00Z,27.2007,-90.2833,2.0,25.1,11111222
BP,ioos:station:wmo:42369:1,2023-05-04T18:59:00Z,27.2007,-90.2838,2.0,25.2,11111222
BP,ioos:station:wmo:42369:1,2023-05-04T19:19:00Z,27.2007,-90.2844,2.0,25.3,11111222
BP,ioos:station:wmo:42369:1,2023-05-04T19:39:00Z,27.2007,-90.2847,2.0,25.2,11111222
BP,ioos:station:wmo:42369:1,2023-05-04T19:59:00Z,27.2009,-90.2855,2.0,25.2,11111222
BP,ioos:station:wmo:42369:1,2023-05-04T20:19:00Z,27.2011,-90.2858,2.0,25.2,11111222
BP,ioos:station:wmo:42369:1,2023-05-04T20:39:00Z,27.2012,-90.2861,2.0,25.2,11111222
BP,ioos:station:wmo:42369:1,2023-05-04T20:59:00Z,27.2017,-90.2869,2.0,25.1,11111222
BP,ioos:station:wmo:42369:1,2023-05-04T21:19:00Z,27.2017,-90.2870,2.0,25.0,11111222
BP,ioos:station:wmo:42369:1,2023-05-04T21:39:00Z,27.2023,-90.2879,2.0,24.9,11111222